Estación de Curicó

Ultimos registro cada 15 minutos 83
Estación Fecha / Hora Temperatura Humedad Lluvia Velocidad Dirección Radiación Presion
83 Curicó 06-05-2026 20:30 11,7 94,8 0 0 326 0,6 995,6
82 Curicó 06-05-2026 20:15 11,7 94,5 0 0 326 0,6 995,2
81 Curicó 06-05-2026 20:00 11,5 94,3 0 0 326 0,6 995,2
80 Curicó 06-05-2026 19:45 11,5 93,9 0 0 326 0,6 994,9
79 Curicó 06-05-2026 19:30 11,5 93,5 0 0 326 0,6 994,7
78 Curicó 06-05-2026 19:15 11,5 92,9 0 0 326 0,6 994,6
77 Curicó 06-05-2026 19:00 11,7 92,5 0 0 326 0,6 994,3
76 Curicó 06-05-2026 18:45 12 91,9 0 0 310 0,6 994,3
75 Curicó 06-05-2026 18:30 12,4 91,6 0 0 295 0,6 994
74 Curicó 06-05-2026 18:15 12,6 91,1 0 0 296 0,6 994
73 Curicó 06-05-2026 18:00 12,8 90,8 0 0,7 291 1,9 993,8
72 Curicó 06-05-2026 17:45 12,9 90,3 0 1 292 5,6 993,5
71 Curicó 06-05-2026 17:30 13,4 89,9 0 0,3 302 19,4 993,3
70 Curicó 06-05-2026 17:15 13,7 89,6 0 0,3 293 21,9 993,4
69 Curicó 06-05-2026 17:00 13,9 89,1 0 1 284 34,4 993,1
68 Curicó 06-05-2026 16:45 14,1 88,5 0 1 295 54,4 992,9
67 Curicó 06-05-2026 16:30 14,7 88,5 0 1 292 81,9 992,8
66 Curicó 06-05-2026 16:15 14,6 89,1 0 1,7 284 116,9 992,6
65 Curicó 06-05-2026 16:00 15 90,7 0 1 286 100,6 992,6
64 Curicó 06-05-2026 15:45 14,9 91,1 0 0,3 299 143,1 992,6
63 Curicó 06-05-2026 15:30 14,6 90,2 0 0,7 279 104,4 992,6
62 Curicó 06-05-2026 15:15 15 90 0 0,7 279 173,1 992,2
61 Curicó 06-05-2026 15:00 15,4 89,7 0 1 270 146,9 992,1
60 Curicó 06-05-2026 14:45 15 89,8 0 1 264 165,6 991,6
59 Curicó 06-05-2026 14:30 16,1 89,8 0 1,3 278 179,4 991,2
58 Curicó 06-05-2026 14:15 15,8 93,7 0 1,3 268 505,6 990,5
57 Curicó 06-05-2026 14:00 15,3 93,3 0 2 270 193,1 991,1
56 Curicó 06-05-2026 13:45 15,5 94,7 0 1,3 282 165,6 990,7
55 Curicó 06-05-2026 13:30 15,8 95,9 0,2 1 291 274,4 990,4
54 Curicó 06-05-2026 13:15 14,8 95,6 0,2 1 316 74,4 990,4
53 Curicó 06-05-2026 13:00 14,9 95,5 0,4 1 312 124,4 990,1
52 Curicó 06-05-2026 12:45 14,6 95,3 0,6 0,7 340 135,6 990,1
51 Curicó 06-05-2026 12:30 14,6 94,8 0 1,7 354 49,4 989,9
50 Curicó 06-05-2026 12:15 14,4 95 0,2 1,3 345 46,9 989,6
49 Curicó 06-05-2026 12:00 14,3 95,2 0 1,7 350 90,6 989,5
48 Curicó 06-05-2026 11:45 14,1 95,5 0 1,7 4 8,1 989,9
47 Curicó 06-05-2026 11:30 14 96,1 0 1,7 355 33,1 989,7
46 Curicó 06-05-2026 11:15 13,9 96,8 0 1 345 56,9 989,7
45 Curicó 06-05-2026 11:00 13,8 96,9 0,2 1 350 28,1 989,4
44 Curicó 06-05-2026 10:45 13,4 97,5 0 0,7 4 40,6 989,4
43 Curicó 06-05-2026 10:30 12,9 97,2 0,6 0,3 29 40,6 989,1
42 Curicó 06-05-2026 10:15 12,4 97 0,8 0,7 69 18,1 989,2
41 Curicó 06-05-2026 10:00 12,1 96,7 1,8 0 142 5,6 988,9
40 Curicó 06-05-2026 09:45 12,1 96,4 0,2 0 79 3,1 988,4
39 Curicó 06-05-2026 09:30 12,1 96,2 0,8 0,3 73 13,1 988,6
38 Curicó 06-05-2026 09:15 12,2 96,2 0,2 0,3 62 9,4 988,5
37 Curicó 06-05-2026 09:00 12,3 96,2 0 0,3 48 24,4 988,1
36 Curicó 06-05-2026 08:45 12,1 96,2 0 1 58 46,9 988,2
35 Curicó 06-05-2026 08:30 12,1 96,2 0 0,7 52 61,9 988,1
34 Curicó 06-05-2026 08:15 12 96,4 0,2 1,3 38 66,9 987,5
33 Curicó 06-05-2026 08:00 11,4 96,7 0 0,7 20 6,9 988,1
32 Curicó 06-05-2026 07:45 11,3 96,5 0,2 0,7 7 3,1 988,2
31 Curicó 06-05-2026 07:30 11,1 96,2 1 0,3 20 0,6 988,1
30 Curicó 06-05-2026 07:15 11,1 95,7 1,2 0,3 317 0,6 988
29 Curicó 06-05-2026 07:00 10,9 95,5 0 0,3 188 0,6 988
28 Curicó 06-05-2026 06:45 10,6 95,2 0 0,3 321 0,6 987,3
27 Curicó 06-05-2026 06:30 11,3 95,6 0 1 35 0,6 987,3
26 Curicó 06-05-2026 06:15 10,2 96,7 0 1 65 0,6 987,2
25 Curicó 06-05-2026 06:00 10,1 95,9 0 1,7 87 0,6 987,2
24 Curicó 06-05-2026 05:45 9,9 96,7 0 1 90 0,6 987,4
23 Curicó 06-05-2026 05:30 9,4 96,1 0 1 69 0,6 987,5
22 Curicó 06-05-2026 05:15 9,9 96,3 0 1 87 0,6 987,5
21 Curicó 06-05-2026 05:00 10,3 96,3 0 0,7 88 0,6 987,5
20 Curicó 06-05-2026 04:45 10,3 96,4 0 0,7 90 0,6 987,5
19 Curicó 06-05-2026 04:30 10,6 96,3 0 1,3 83 0,6 987,4
18 Curicó 06-05-2026 04:15 10,4 96,5 0 1 66 0,6 987,5
17 Curicó 06-05-2026 04:00 10,4 96,4 0 1 60 0,6 987,7
16 Curicó 06-05-2026 03:45 10,1 96,6 0 0,3 84 0,6 987,9
15 Curicó 06-05-2026 03:30 9,8 96,2 0 0 74 0,6 988
14 Curicó 06-05-2026 03:15 10 96,1 0 0,7 67 0,6 987,9
13 Curicó 06-05-2026 03:00 10,1 96 0 0,3 73 0,6 987,9
12 Curicó 06-05-2026 02:45 10,1 95,5 0 0 70 0,6 988,2
11 Curicó 06-05-2026 02:30 10,5 95,5 0 0,3 73 0,6 988
10 Curicó 06-05-2026 02:15 10,4 95,2 0 0 94 0,6 988
9 Curicó 06-05-2026 02:00 10,4 94,7 0 0 88 0,6 988,1
8 Curicó 06-05-2026 01:45 10,4 94,5 0 0 21 0,6 987,9
7 Curicó 06-05-2026 01:30 10,6 94,1 0 0 354 0,6 988,1
6 Curicó 06-05-2026 01:15 11,2 93,7 0 0 358 0,6 987,9
5 Curicó 06-05-2026 01:00 11,7 93,6 0 0,3 10 0,6 987,9
4 Curicó 06-05-2026 00:45 11,7 93,3 0 0 21 0,6 988
3 Curicó 06-05-2026 00:30 12 93,3 0 0 27 0,6 988
2 Curicó 06-05-2026 00:15 12 92,7 0 0 31 0,6 988,5
1 Curicó 06-05-2026 00:00 12,2 92,9 0 0,3 42 0,6 988,3